Location: Lac Echo
(45.9375°N, 75.4580°W)
Time: 19:06:27
(UTC-04:00)

Amateur Radio Satellites - All Passes

Search period start: 25 June 2016 18:36
Search period end: 26 June 2016 18:36
Location: Lac Echo, 45.9375°N, 75.4580°W

Satellite Date Start Highest point End Downlink Frequencies (MHz)
Time Altitude Azimuth
Cubesat XI-IV 25 Jun 18:44:10 18:49:28 66° 257° (WSW) 18:54:50 437.490
BRITE-PL 25 Jun 18:49:53 18:54:48 44° 262° (W) 18:59:23 437.365/2234.400
MOZHAYETS 4 25 Jun 18:54:31 18:55:50 11° 303° (WNW) 18:57:11
HO-68 25 Jun 18:58:51 19:05:09 35° 60° (ENE) 19:11:30 435.675
CINEMA 3 25 Jun 19:05:54 19:08:53 19° 64° (ENE) 19:11:53 145.822/145.860
CUTE-I 25 Jun 19:20:26 19:25:12 33° 264° (W) 19:30:01 437.470
CANX-2 25 Jun 19:20:39 19:24:20 28° 67° (ENE) 19:28:01 2200.000
DOVE 4 25 Jun 19:21:06 19:25:30 89° 271° (W) 19:29:44 437.250
CUBEBUG 2 25 Jun 19:27:58 19:29:14 11° 58° (ENE) 19:30:29 437.445
COMPASS 1 25 Jun 19:36:30 19:39:33 20° 64° (ENE) 19:42:37 437.405
DANDE 25 Jun 19:40:11 19:45:56 64° 75° (ENE) 19:50:08 436.750
CUTE 1.7 + AOD 2 25 Jun 19:40:57 19:44:57 39° 70° (ENE) 19:48:59 437.475
GONETS M04 25 Jun 19:41:08 19:49:51 81° 279° (W) 19:58:37
LilacSat-2 25 Jun 19:42:04 19:44:01 14° 270° (W) 19:45:59 437.200
GOMX 1 25 Jun 19:42:05 19:46:05 27° 265° (W) 19:49:54 467.674
SO-50 25 Jun 19:44:57 19:47:46 15° 333° (NNW) 19:50:33 436.795
CUSAT 1 25 Jun 19:50:07 19:54:00 35° 269° (W) 19:57:03 437.405
SEEDS 25 Jun 19:51:17 19:55:11 37° 70° (ENE) 19:59:08 437.485
M-CUBED/EXP-1 PRIME 25 Jun 19:52:19 19:54:49 20° 61° (ENE) 19:57:18 437.505
NOAA 18 25 Jun 19:53:37 19:56:59 16° 270° (W) 20:00:23 137.9125
Cosmos 2499 25 Jun 20:00:00 20:08:16 88° 278° (W) 20:17:08 435.465 / 435.565
NOAA 15 25 Jun 20:04:43 20:05:27 10° 274° (W) 20:06:11 137.62
ZACube-1 25 Jun 20:08:09 20:10:20 14° 60° (ENE) 20:12:34 437.345
STRAND 1 25 Jun 20:08:31 20:13:36 54° 100° (E) 20:18:38 437.568
CUBESAT XI-V 25 Jun 20:12:02 20:14:18 14° 301° (WNW) 20:16:32 437.345
RS-15 25 Jun 20:19:03 20:31:05 55° 40° (NE) 20:43:08 29.354- 29.394
UWE-3 25 Jun 20:19:59 20:23:26 25° 66° (ENE) 20:26:57 435.000/436.395/437.385
Oscar 11 25 Jun 20:23:25 20:26:43 22° 64° (ENE) 20:30:03 145.826/435.025
FUNcube-1 25 Jun 20:26:36 20:29:39 20° 64° (ENE) 20:32:45 145.935
AAUSAT CUBESAT 2 25 Jun 20:39:49 20:43:59 70° 75° (ENE) 20:48:11 437.432
CINEMA 3 25 Jun 20:41:51 20:45:47 41° 262° (W) 20:49:44 145.822/145.860
HO-68 25 Jun 20:45:39 20:52:37 54° 259° (W) 20:59:39 435.675
AUBIESAT-1 25 Jun 20:49:24 20:52:42 85° 71° (ENE) 20:56:01 437.475
CANX-2 25 Jun 20:56:22 21:00:08 30° 265° (W) 21:03:56 2200.000
CUBEBUG 2 25 Jun 21:01:01 21:05:10 84° 254° (WSW) 21:09:27 437.445
COMPASS 1 25 Jun 21:10:48 21:14:49 43° 261° (W) 21:18:53 437.405
CUTE 1.7 + AOD 2 25 Jun 21:17:41 21:20:57 21° 268° (W) 21:24:14 437.475
DELFI C3 25 Jun 21:19:49 21:23:30 35° 70° (ENE) 21:27:13 145.870
DANDE 25 Jun 21:24:45 21:27:38 15° 283° (WNW) 21:30:10 436.750
M-CUBED/EXP-1 PRIME 25 Jun 21:26:34 21:29:19 24° 258° (WSW) 21:32:04 437.505
SEEDS 25 Jun 21:27:40 21:31:00 22° 267° (W) 21:34:22 437.485
PRISM 25 Jun 21:29:07 21:33:10 56° 101° (E) 21:37:09 437.425
ZACube-1 25 Jun 21:41:56 21:46:06 67° 259° (W) 21:50:22 437.345
GONETS M04 25 Jun 21:42:18 21:48:14 20° 303° (WNW) 21:54:13
HUMSAT D 25 Jun 21:48:19 21:52:07 35° 69° (ENE) 21:55:58 437.325/437.525
STRAND 1 25 Jun 21:48:25 21:52:25 23° 299° (WNW) 21:56:24 437.568
AO-85 25 Jun 21:52:23 21:56:37 24° 112° (ESE) 22:00:46 145.980
UWE-3 25 Jun 21:56:03 21:59:48 32° 264° (W) 22:03:37 435.000/436.395/437.385
Cosmos 2499 25 Jun 21:56:30 22:02:48 23° 302° (WNW) 22:09:22 435.465 / 435.565
YUBILEINY 25 Jun 21:58:19 22:00:10 11° 46° (NE) 22:02:01 435.215
Oscar 11 25 Jun 21:58:30 22:02:36 41° 262° (W) 22:06:45 145.826/435.025
FUNcube-1 25 Jun 22:01:37 22:05:36 43° 262° (W) 22:09:42 145.935
AAUSAT CUBESAT 2 25 Jun 22:18:26 22:19:57 12° 272° (W) 22:21:29 437.432
ESTCUBE 1 25 Jun 22:23:07 22:26:20 19° 62° (ENE) 22:29:32 437.505/2401.250
RS-15 25 Jun 22:31:59 22:43:55 60° 246° (WSW) 22:55:45 29.354- 29.394
AISAT 25 Jun 22:40:50 22:43:57 19° 62° (ENE) 22:47:03 437.250
TIGRISAT 25 Jun 22:50:14 22:54:20 31° 96° (E) 22:58:28 435.000
50 SAT 25 Jun 22:51:55 22:54:43 20° 66° (ENE) 22:57:31 437.505
UNISAT 6 25 Jun 22:54:09 22:58:24 35° 96° (E) 23:02:42 437.425
DELFI C3 25 Jun 22:55:22 22:58:28 21° 267° (W) 23:01:35 145.870
UKube-1 25 Jun 22:58:54 23:01:49 18° 62° (ENE) 23:04:44 .
PRISM 25 Jun 23:05:37 23:08:02 15° 299° (WNW) 23:10:28 437.425
SPROUT 25 Jun 23:07:22 23:09:42 15° 61° (ENE) 23:12:01 437.525
SO-50 25 Jun 23:11:11 23:13:11 12° 23° (NNE) 23:15:10 436.795
DX 1 25 Jun 23:11:41 23:15:24 28° 66° (ENE) 23:19:09 434.975-435.025
Cosmos 2504 25 Jun 23:14:14 23:15:36 10° 45° (NE) 23:16:58 435.465 / 435.565
Cosmos 2491 25 Jun 23:14:53 23:16:14 10° 69° (ENE) 23:17:35 435.465 / 435.565
HUMSAT D 25 Jun 23:24:32 23:27:50 23° 267° (W) 23:31:11 437.325/437.525
AO-85 25 Jun 23:31:25 23:36:48 63° 310° (NW) 23:41:58 145.980
ANTELSAT 25 Jun 23:33:52 23:38:31 86° 107° (ESE) 23:43:12 437.575/2403.000
VELOX 1 25 Jun 23:35:12 23:39:33 60° 73° (ENE) 23:43:54 145.980
CUBEBUG 1 25 Jun 23:35:43 23:40:02 64° 73° (ENE) 23:44:21 437.445
NANOSAT C BR1 25 Jun 23:49:03 23:52:20 21° 93° (E) 23:55:36 145.865
QB50P1 25 Jun 23:50:03 23:53:28 23° 94° (E) 23:56:52 145.935-145.965
YUBILEINY 25 Jun 23:51:19 23:59:47 47° 72° (ENE) 00:08:13 435.215
POPSAT HIP 1 25 Jun 23:52:53 23:56:23 24° 94° (E) 23:59:52 437.405
ESTCUBE 1 25 Jun 23:58:19 00:02:45 53° 260° (W) 00:07:13 437.505/2401.250
QB50P2 26 Jun 00:04:06 00:07:59 34° 97° (E) 00:11:52 145.880/145.840
POLYITAN 1 26 Jun 00:06:42 00:10:37 34° 97° (E) 00:14:32 437.675
DUCHIFAT 1 26 Jun 00:10:48 00:14:40 33° 97° (E) 00:18:30 145.980
AISAT 26 Jun 00:15:47 00:20:04 50° 260° (W) 00:24:23 437.250
50 SAT 26 Jun 00:24:51 00:28:13 32° 263° (W) 00:31:36 437.505
TIGRISAT 26 Jun 00:26:55 00:31:00 32° 292° (WNW) 00:35:06 435.000
UNISAT 6 26 Jun 00:31:05 00:35:00 28° 294° (WNW) 00:38:57 437.425
UKube-1 26 Jun 00:33:17 00:37:30 52° 260° (W) 00:41:44 .
TISAT 1 26 Jun 00:37:46 00:41:28 32° 68° (ENE) 00:45:12 437.305
SPROUT 26 Jun 00:40:56 00:45:08 65° 258° (WSW) 00:49:23 437.525
DX 1 26 Jun 00:47:41 00:51:32 31° 263° (W) 00:55:25 434.975-435.025
RS-15 26 Jun 00:48:28 00:53:33 14° 268° (W) 00:58:38 29.354- 29.394
SO-50 26 Jun 00:50:27 00:54:57 42° 45° (NE) 00:59:18 436.795
Cosmos 2491 26 Jun 01:02:30 01:10:58 56° 90° (E) 01:19:26 435.465 / 435.565
Cosmos 2504 26 Jun 01:03:25 01:11:54 44° 71° (ENE) 01:20:05 435.465 / 435.565
SWISSCUBE 26 Jun 01:11:11 01:14:39 20° 61° (ENE) 01:18:09 437.505
JAS-2 26 Jun 01:11:57 01:17:18 36° 95° (E) 01:22:12 435.910
ANTELSAT 26 Jun 01:12:27 01:14:34 13° 301° (WNW) 01:16:42 437.575/2403.000
VELOX 1 26 Jun 01:13:52 01:16:24 15° 270° (W) 01:18:57 145.980
CUBEBUG 1 26 Jun 01:14:33 01:16:45 14° 271° (W) 01:18:57 437.445
AO-85 26 Jun 01:14:47 01:18:15 17° 330° (NNW) 01:21:36 145.980
BUGSAT 1 26 Jun 01:19:48 01:23:53 87° 97° (E) 01:28:01 437.445
NANOSAT C BR1 26 Jun 01:24:16 01:28:12 38° 290° (WNW) 01:32:07 145.865
QB50P1 26 Jun 01:25:27 01:29:20 35° 291° (WNW) 01:33:12 145.935-145.965
POPSAT HIP 1 26 Jun 01:28:23 01:32:14 34° 291° (WNW) 01:36:04 437.405
ITUPSAT 1 26 Jun 01:35:00 01:39:06 29° 65° (ENE) 01:43:14 437.325
BEESAT 26 Jun 01:36:01 01:40:10 30° 65° (ENE) 01:44:19 436.000
QB50P2 26 Jun 01:40:11 01:43:39 25° 294° (WNW) 01:47:08 145.880/145.840
Oscar 19 26 Jun 01:41:07 01:45:18 25° 93° (E) 01:49:28 437.125/150
POLYITAN 1 26 Jun 01:42:48 01:46:16 25° 294° (WNW) 01:49:44 437.675
DUCHIFAT 1 26 Jun 01:46:46 01:50:13 25° 294° (WNW) 01:53:40 145.980
YUBILEINY 26 Jun 01:48:23 01:56:31 44° 273° (W) 02:04:39 435.215
TISAT 1 26 Jun 02:13:45 02:17:11 24° 266° (W) 02:20:37 437.305
SO-50 26 Jun 02:31:16 02:35:17 29° 245° (WSW) 02:39:11 436.795
MOZHAYETS 4 26 Jun 02:43:45 02:46:40 17° 61° (ENE) 02:49:36
SWISSCUBE 26 Jun 02:47:22 02:52:03 55° 259° (W) 02:56:48 437.505
Cosmos 2504 26 Jun 02:56:58 03:05:22 49° 272° (W) 03:13:32 435.465 / 435.565
JAS-2 26 Jun 02:57:06 03:02:23 35° 297° (WNW) 03:07:14 435.910
BUGSAT 1 26 Jun 02:57:52 02:58:38 10° 301° (WNW) 02:59:25 437.445
BEESAT 3 26 Jun 02:59:44 03:02:28 18° 113° (ESE) 03:05:14 437.485
Cosmos 2491 26 Jun 03:00:15 03:08:11 37° 292° (WNW) 03:16:08 435.465 / 435.565
O/OREOS (USA 219) 26 Jun 03:01:58 03:05:36 24° 103° (ESE) 03:09:14 437.305
PCSat 26 Jun 03:02:23 03:07:35 49° 115° (ESE) 03:12:49 145.827
Gurwin Techsat 1B 26 Jun 03:12:08 03:17:29 72° 103° (ESE) 03:22:48 435.225
ITUPSAT 1 26 Jun 03:12:24 03:16:49 36° 263° (W) 03:21:18 437.325
BEESAT 26 Jun 03:13:30 03:17:51 35° 263° (W) 03:22:15 436.000
KKS-1 26 Jun 03:14:18 03:18:17 34° 68° (ENE) 03:22:18 437.445
Oscar 19 26 Jun 03:19:57 03:24:51 46° 291° (WNW) 03:29:43 437.125/150
BEESAT 2 26 Jun 03:31:08 03:34:13 22° 114° (ESE) 03:37:19 435.950
ITAMSAT 1 26 Jun 03:35:35 03:40:35 43° 98° (E) 03:45:33 435.822/435.867
AO-7 26 Jun 03:51:12 03:58:22 30° 94° (E) 04:05:28 29.400- 29.500
GONETS M04 26 Jun 03:53:47 03:57:50 14° 50° (NE) 04:01:53
STARS 26 Jun 03:54:30 03:58:39 45° 70° (ENE) 04:02:50 437.465
CUBESAT XI-V 26 Jun 04:03:40 04:06:09 14° 59° (ENE) 04:08:37 437.345
MOZHAYETS 4 26 Jun 04:18:45 04:23:20 65° 259° (W) 04:27:59
BEESAT 3 26 Jun 04:36:01 04:39:49 48° 311° (NW) 04:43:41 437.485
AIST 1 26 Jun 04:39:42 04:43:56 60° 79° (E) 04:48:08
O/OREOS (USA 219) 26 Jun 04:40:35 04:44:48 38° 302° (WNW) 04:49:01 437.305
AO-85 26 Jun 04:42:11 04:43:43 11° 19° (NNE) 04:45:13 145.980
PCSat 26 Jun 04:46:21 04:51:11 32° 315° (NW) 04:56:04 145.827
KKS-1 26 Jun 04:51:12 04:54:55 26° 265° (W) 04:58:39 437.445
Gurwin Techsat 1B 26 Jun 04:53:14 04:56:53 19° 301° (WNW) 05:00:30 435.225
BEESAT 2 26 Jun 05:08:03 05:11:50 41° 312° (NW) 05:15:39 435.950
ITAMSAT 1 26 Jun 05:15:26 05:19:52 28° 297° (WNW) 05:24:16 435.822/435.867
AIST 2 26 Jun 05:26:13 05:29:20 21° 113° (ESE) 05:32:29 435.215
STARS 26 Jun 05:32:06 05:35:14 19° 267° (W) 05:38:23 437.465
CUBESAT XI-V 26 Jun 05:38:11 05:42:54 80° 257° (WSW) 05:47:37 437.345
AO-7 26 Jun 05:43:25 05:51:43 68° 295° (WNW) 05:59:59 29.400- 29.500
GONETS M04 26 Jun 05:48:20 05:56:56 59° 75° (ENE) 06:05:31
Cosmos 2499 26 Jun 05:48:36 05:56:57 43° 70° (ENE) 06:04:54 435.465 / 435.565
STRAND 1 26 Jun 05:50:26 05:53:23 16° 57° (ENE) 05:56:20 437.568
CUTE-I 26 Jun 05:56:48 05:58:39 12° 86° (E) 06:00:29 437.470
HORYU 2 26 Jun 06:04:12 06:08:44 81° 103° (ESE) 06:13:14 437.375
BEESAT 3 26 Jun 06:17:39 06:18:29 10° 332° (NNW) 06:19:18 437.485
AIST 1 26 Jun 06:19:03 06:20:58 13° 277° (W) 06:22:54
AO-85 26 Jun 06:21:19 06:25:40 36° 43° (NE) 06:29:39 145.980
NOAA 18 26 Jun 06:30:17 06:34:53 26° 94° (E) 06:39:28 137.9125
NOAA 15 26 Jun 06:32:26 06:37:10 33° 96° (E) 06:41:51 137.62
PCSat 26 Jun 06:35:30 06:36:24 10° 339° (NNW) 06:37:18 145.827
BRITE-PL 26 Jun 06:52:03 06:56:04 45° 99° (E) 07:00:03 437.365/2234.400
Cubesat XI-IV 26 Jun 06:58:57 07:04:03 41° 98° (E) 07:09:07 437.490
AIST 2 26 Jun 07:03:34 07:07:32 46° 312° (NW) 07:11:34 435.215
DANDE 26 Jun 07:08:07 07:12:56 17° 79° (E) 07:17:37 436.750
CUSAT 1 26 Jun 07:10:13 07:16:42 30° 89° (E) 07:22:26 437.405
LilacSat-2 26 Jun 07:10:42 07:14:30 53° 100° (E) 07:18:19 437.200
DOVE 4 26 Jun 07:17:40 07:20:44 19° 93° (E) 07:23:52 437.250
STRAND 1 26 Jun 07:26:44 07:31:52 85° 256° (WSW) 07:37:05 437.568
CUTE-I 26 Jun 07:34:05 07:39:31 83° 104° (ESE) 07:44:54 437.470
AO-7 26 Jun 07:37:37 07:43:03 19° 316° (NW) 07:48:29 29.400- 29.500
GOMX 1 26 Jun 07:40:06 07:44:15 67° 102° (ESE) 07:48:31 467.674
Cosmos 2499 26 Jun 07:41:50 07:50:14 50° 272° (W) 07:58:13 435.465 / 435.565
HORYU 2 26 Jun 07:42:31 07:44:40 13° 302° (WNW) 07:46:48 437.375
GONETS M04 26 Jun 07:45:48 07:53:18 34° 277° (W) 08:00:50
AO-85 26 Jun 08:02:02 08:06:03 32° 245° (WSW) 08:09:46 145.980
NOAA 18 26 Jun 08:10:26 08:15:47 50° 292° (WNW) 08:21:07 137.9125
HO-68 26 Jun 08:10:52 08:16:51 27° 93° (E) 08:22:48 435.675
NOAA 15 26 Jun 08:12:11 08:16:58 36° 294° (WNW) 08:21:43 137.62
PHONESAT 2.4 26 Jun 08:13:14 08:14:23 12° 155° (SSE) 08:15:31 2401.200-2431.200
PRISM 26 Jun 08:20:31 08:24:35 56° 73° (ENE) 08:28:41 437.425
BRITE-PL 26 Jun 08:31:27 08:34:17 18° 297° (WNW) 08:37:05 437.365/2234.400
CINEMA 3 26 Jun 08:33:09 08:37:16 35° 97° (E) 08:41:33 145.822/145.860
CANX-2 26 Jun 08:38:24 08:42:27 39° 97° (E) 08:46:27 2200.000
Cubesat XI-IV 26 Jun 08:39:17 08:43:58 31° 296° (WNW) 08:48:37 437.490
AIST 2 26 Jun 08:45:57 08:47:03 11° 333° (NNW) 08:48:10 435.215
LilacSat-2 26 Jun 08:46:17 08:48:24 14° 297° (WNW) 08:50:32 437.200
DANDE 26 Jun 08:46:19 08:54:41 72° 97° (E) 09:02:32 436.750
CUBEBUG 2 26 Jun 08:49:49 08:52:59 18° 91° (E) 08:56:12 437.445
CUSAT 1 26 Jun 08:50:43 08:58:30 63° 284° (WNW) 09:05:08 437.405
COMPASS 1 26 Jun 08:51:27 08:54:55 24° 94° (E) 08:58:20 437.405
DOVE 4 26 Jun 08:54:37 08:58:39 44° 288° (WNW) 09:02:51 437.250
CUTE 1.7 + AOD 2 26 Jun 08:58:50 09:03:05 56° 100° (E) 09:07:17 437.475
ANTELSAT 26 Jun 09:01:29 09:03:15 12° 58° (ENE) 09:05:01 437.575/2403.000
M-CUBED/EXP-1 PRIME 26 Jun 09:03:22 09:04:52 12° 97° (E) 09:06:23 437.505
SEEDS 26 Jun 09:07:58 09:12:08 51° 99° (E) 09:16:15 437.485
STRAND 1 26 Jun 09:10:14 09:11:50 11° 274° (W) 09:13:25 437.568
CUTE-I 26 Jun 09:15:33 09:18:53 17° 303° (WNW) 09:22:13 437.470
GOMX 1 26 Jun 09:19:55 09:21:54 13° 299° (WNW) 09:23:53 467.674
ZACube-1 26 Jun 09:28:09 09:31:34 21° 92° (E) 09:35:00 437.345
UWE-3 26 Jun 09:42:16 09:46:36 41° 98° (E) 09:50:59 435.000/436.395/437.385
Oscar 11 26 Jun 09:43:13 09:47:04 29° 95° (E) 09:50:52 145.826/435.025
FUNcube-1 26 Jun 09:46:53 09:50:51 30° 95° (E) 09:54:51 145.935
PHONESAT 2.4 26 Jun 09:47:46 09:50:24 26° 171° (S) 09:53:02 2401.200-2431.200
TIGRISAT 26 Jun 09:51:23 09:55:15 34° 68° (ENE) 09:59:13 435.000
AAUSAT CUBESAT 2 26 Jun 09:55:00 09:59:13 86° 284° (WNW) 10:03:23 437.432
UNISAT 6 26 Jun 09:55:25 09:59:25 39° 69° (ENE) 10:03:31 437.425
HO-68 26 Jun 09:57:57 10:05:04 65° 292° (WNW) 10:12:10 435.675
PRISM 26 Jun 09:57:57 10:00:14 14° 269° (W) 10:02:33 437.425
AUBIESAT-1 26 Jun 09:59:04 10:02:41 40° 105° (ESE) 10:06:33 437.475
PCSat 26 Jun 10:05:09 10:08:38 17° 33° (NNE) 10:12:06 145.827
CINEMA 3 26 Jun 10:10:34 10:14:18 27° 293° (WNW) 10:18:09 145.822/145.860
CANX-2 26 Jun 10:14:44 10:18:05 22° 295° (WNW) 10:21:25 2200.000
ISS 26 Jun 10:21:03 10:24:10 44° 144° (SE) 10:27:18 145.825
CUBEBUG 2 26 Jun 10:25:27 10:29:52 53° 288° (WNW) 10:34:25 437.445
COMPASS 1 26 Jun 10:26:45 10:30:31 33° 292° (WNW) 10:34:16 437.405
DELFI C3 26 Jun 10:29:31 10:33:20 40° 98° (E) 10:37:06 145.870
DANDE 26 Jun 10:30:52 10:38:04 31° 294° (WNW) 10:44:51 436.750
ANTELSAT 26 Jun 10:34:59 10:39:17 82° 257° (WSW) 10:43:43 437.575/2403.000
CUTE 1.7 + AOD 2 26 Jun 10:35:47 10:38:30 17° 298° (WNW) 10:41:11 437.475
M-CUBED/EXP-1 PRIME 26 Jun 10:35:58 10:39:41 64° 291° (WNW) 10:43:42 437.505
CUSAT 1 26 Jun 10:37:59 10:41:35 14° 301° (WNW) 10:44:57 437.405
NANOSAT C BR1 26 Jun 10:43:41 10:46:56 22° 65° (ENE) 10:50:13 145.865
SEEDS 26 Jun 10:44:38 10:47:27 18° 297° (WNW) 10:50:17 437.485
QB50P1 26 Jun 10:44:57 10:48:20 24° 66° (ENE) 10:51:43 145.935-145.965
POPSAT HIP 1 26 Jun 10:47:49 10:51:16 25° 66° (ENE) 10:54:43 437.405
RS-15 26 Jun 10:50:28 10:57:50 20° 96° (E) 11:05:22 29.354- 29.394
QB50P2 26 Jun 10:59:00 11:02:48 35° 69° (ENE) 11:06:38 145.880/145.840
POLYITAN 1 26 Jun 11:01:36 11:05:25 35° 69° (ENE) 11:09:17 437.675
ZACube-1 26 Jun 11:03:44 11:08:03 45° 289° (WNW) 11:12:24 437.345
HUMSAT D 26 Jun 11:04:18 11:08:30 48° 99° (E) 11:12:40 437.325/437.525
DUCHIFAT 1 26 Jun 11:04:58 11:08:44 34° 68° (ENE) 11:12:31 145.980
Cosmos 2491 26 Jun 11:09:49 11:17:26 32° 65° (ENE) 11:24:59 435.465 / 435.565
BEESAT 3 26 Jun 11:13:37 11:17:05 28° 43° (NE) 11:20:31 437.485
UWE-3 26 Jun 11:19:13 11:22:50 24° 295° (WNW) 11:26:30 435.000/436.395/437.385
Oscar 11 26 Jun 11:19:21 11:23:09 30° 293° (WNW) 11:26:55 145.826/435.025
FUNcube-1 26 Jun 11:23:05 11:27:04 32° 292° (WNW) 11:31:05 145.935
PHONESAT 2.4 26 Jun 11:23:56 11:26:36 26° 188° (S) 11:29:15 2401.200-2431.200
JAS-2 26 Jun 11:25:34 11:31:48 29° 61° (ENE) 11:37:35 435.910
TIGRISAT 26 Jun 11:28:28 11:32:01 25° 266° (W) 11:35:38 435.000
O/OREOS (USA 219) 26 Jun 11:31:11 11:32:43 11° 44° (NE) 11:34:14 437.305
UNISAT 6 26 Jun 11:33:00 11:36:19 21° 268° (W) 11:39:41 437.425
AAUSAT CUBESAT 2 26 Jun 11:33:41 11:33:59 10° 302° (WNW) 11:34:19 437.432
AUBIESAT-1 26 Jun 11:34:10 11:37:00 20° 299° (WNW) 11:39:57 437.475
BEESAT 2 26 Jun 11:46:05 11:49:44 32° 45° (NE) 11:53:21 435.950
HO-68 26 Jun 11:47:31 11:51:28 16° 313° (NW) 11:55:26 435.675
PCSat 26 Jun 11:47:39 11:53:05 67° 55° (NE) 11:58:28 145.827
ESTCUBE 1 26 Jun 11:48:37 11:52:27 27° 95° (E) 11:56:15 437.505/2401.250
50 SAT 26 Jun 11:51:56 11:54:27 17° 92° (E) 11:56:57 437.505
ISS 26 Jun 11:57:31 12:00:39 41° 344° (NNW) 12:03:47 145.825
AISAT 26 Jun 12:03:46 12:07:22 25° 94° (E) 12:10:59 437.250
DELFI C3 26 Jun 12:05:04 12:07:55 19° 296° (WNW) 12:10:45 145.870
BUGSAT 1 26 Jun 12:11:38 12:15:39 83° 78° (ENE) 12:19:41 437.445
UKube-1 26 Jun 12:18:26 12:21:43 21° 93° (E) 12:24:59 .
NANOSAT C BR1 26 Jun 12:18:36 12:22:29 37° 262° (W) 12:26:23 145.865
QB50P1 26 Jun 12:20:08 12:23:58 34° 263° (W) 12:27:49 145.935-145.965
POPSAT HIP 1 26 Jun 12:23:10 12:26:55 32° 263° (W) 12:30:44 437.405
SPROUT 26 Jun 12:25:14 12:28:11 18° 92° (E) 12:31:08 437.525
DX 1 26 Jun 12:32:52 12:36:53 36° 98° (E) 12:40:52 434.975-435.025
QB50P2 26 Jun 12:35:20 12:38:42 23° 266° (W) 12:42:05 145.880/145.840
POLYITAN 1 26 Jun 12:38:00 12:41:19 23° 266° (W) 12:44:41 437.675
HUMSAT D 26 Jun 12:40:44 12:43:47 19° 297° (WNW) 12:46:51 437.325/437.525
DUCHIFAT 1 26 Jun 12:41:09 12:44:30 23° 266° (W) 12:47:52 145.980
BEESAT 3 26 Jun 12:51:11 12:54:49 35° 242° (WSW) 12:58:26 437.485
YUBILEINY 26 Jun 12:55:18 13:03:31 49° 88° (E) 13:11:48 435.215
RS-15 26 Jun 12:56:39 13:08:01 76° 120° (ESE) 13:20:04 29.354- 29.394
Gurwin Techsat 1B 26 Jun 12:57:34 13:01:34 22° 61° (ENE) 13:05:35 435.225
CUBEBUG 1 26 Jun 12:57:54 13:02:15 87° 284° (WNW) 13:06:33 437.445
VELOX 1 26 Jun 12:59:03 13:03:29 86° 104° (ESE) 13:07:52 145.980
Oscar 19 26 Jun 13:00:05 13:04:59 46° 69° (ENE) 13:09:53 437.125/150
PHONESAT 2.4 26 Jun 13:01:17 13:02:38 12° 204° (SSW) 13:04:00 2401.200-2431.200
AO-7 26 Jun 13:05:25 13:09:37 15° 39° (NE) 13:13:48 29.400- 29.500
Cosmos 2491 26 Jun 13:06:19 13:14:54 65° 268° (W) 13:23:27 435.465 / 435.565
O/OREOS (USA 219) 26 Jun 13:08:29 13:12:58 73° 64° (ENE) 13:17:27 437.305
JAS-2 26 Jun 13:08:41 13:16:22 69° 258° (WSW) 13:23:25 435.910
ITAMSAT 1 26 Jun 13:19:47 13:22:24 14° 55° (NE) 13:25:01 435.822/435.867
BEESAT 2 26 Jun 13:24:01 13:27:31 30° 244° (WSW) 13:31:00 435.950
50 SAT 26 Jun 13:24:51 13:28:17 36° 290° (WNW) 13:31:40 437.505
ESTCUBE 1 26 Jun 13:25:13 13:29:18 34° 292° (WNW) 13:33:21 437.505/2401.250
PCSat 26 Jun 13:32:04 13:35:57 20° 253° (WSW) 13:39:49 145.827
ISS 26 Jun 13:34:41 13:37:36 29° 3° (N) 13:40:31 145.825
AISAT 26 Jun 13:39:55 13:43:55 35° 292° (WNW) 13:47:56 437.250
AIST 2 26 Jun 13:44:17 13:48:06 33° 45° (NE) 13:51:52 435.215
Cosmos 2504 26 Jun 13:45:11 13:52:07 32° 82° (E) 13:59:25 435.465 / 435.565
UKube-1 26 Jun 13:53:53 13:57:56 40° 291° (WNW) 14:01:58 .
TISAT 1 26 Jun 13:54:15 13:58:14 40° 98° (E) 14:02:12 437.305
SPROUT 26 Jun 14:00:17 14:04:23 46° 289° (WNW) 14:08:29 437.525
DX 1 26 Jun 14:09:24 14:12:55 25° 295° (WNW) 14:16:25 434.975-435.025
Gurwin Techsat 1B 26 Jun 14:35:52 14:41:07 59° 259° (W) 14:46:23 435.225
CUBEBUG 1 26 Jun 14:36:45 14:37:50 11° 302° (WNW) 14:38:54 437.445
VELOX 1 26 Jun 14:37:37 14:39:17 12° 302° (WNW) 14:40:57 145.980
Oscar 19 26 Jun 14:40:19 14:44:30 25° 266° (W) 14:48:43 437.125/150
SWISSCUBE 26 Jun 14:45:12 14:49:29 31° 96° (E) 14:53:42 437.505
O/OREOS (USA 219) 26 Jun 14:49:48 14:51:45 13° 262° (W) 14:53:41 437.305
YUBILEINY 26 Jun 14:52:21 15:00:28 42° 290° (WNW) 15:08:41 435.215
AO-7 26 Jun 14:52:32 15:00:30 52° 61° (ENE) 15:08:31 29.400- 29.500
ITAMSAT 1 26 Jun 14:55:51 15:01:04 84° 75° (ENE) 15:06:20 435.822/435.867
JAS-2 26 Jun 14:58:54 15:02:23 14° 275° (W) 15:05:46 435.910
Cosmos 2491 26 Jun 15:06:31 15:09:53 13° 289° (WNW) 15:13:15 435.465 / 435.565
ITUPSAT 1 26 Jun 15:09:55 15:14:35 47° 99° (E) 15:19:12 437.325
RS-15 26 Jun 15:10:30 15:21:34 45° 328° (NNW) 15:33:12 29.354- 29.394
BEESAT 26 Jun 15:10:33 15:15:13 48° 100° (E) 15:19:50 436.000
ISS 26 Jun 15:11:13 15:14:28 59° 23° (NNE) 15:17:43 145.825
AIST 2 26 Jun 15:22:51 15:26:33 31° 243° (WSW) 15:30:14 435.215
TISAT 1 26 Jun 15:30:29 15:33:39 21° 296° (WNW) 15:36:49 437.305
HORYU 2 26 Jun 15:30:52 15:32:51 13° 58° (ENE) 15:34:51 437.375
Cosmos 2504 26 Jun 15:36:55 15:44:55 61° 284° (WNW) 15:53:33 435.465 / 435.565
MOZHAYETS 4 26 Jun 16:11:43 16:15:34 25° 93° (E) 16:19:24
NOAA 15 26 Jun 16:19:29 16:21:09 11° 53° (NE) 16:22:48 137.62
SWISSCUBE 26 Jun 16:22:58 16:27:16 33° 293° (WNW) 16:31:32 437.505
NOAA 18 26 Jun 16:23:11 16:24:36 11° 51° (NE) 16:25:59 137.9125
BRITE-PL 26 Jun 16:30:50 16:31:47 11° 58° (ENE) 16:32:43 437.365/2234.400
ITAMSAT 1 26 Jun 16:38:38 16:41:13 14° 272° (W) 16:43:47 435.822/435.867
KKS-1 26 Jun 16:38:40 16:42:59 48° 100° (E) 16:47:17 437.445
AO-7 26 Jun 16:45:42 16:53:26 41° 261° (W) 17:01:15 29.400- 29.500
SO-50 26 Jun 16:46:32 16:51:15 51° 121° (ESE) 16:56:00 436.795
Cubesat XI-IV 26 Jun 16:46:36 16:49:23 15° 55° (NE) 16:52:12 437.490
ISS 26 Jun 16:47:59 16:50:44 25° 221° (SW) 16:53:28 145.825
ITUPSAT 1 26 Jun 16:48:21 16:52:09 23° 297° (WNW) 16:55:54 437.325
BEESAT 26 Jun 16:49:00 16:52:41 23° 298° (WNW) 16:56:22 436.000
GONETS M04 26 Jun 17:02:58 17:05:45 12° 70° (ENE) 17:08:33
HORYU 2 26 Jun 17:04:20 17:08:46 82° 255° (WSW) 17:13:15 437.375
AIST 1 26 Jun 17:11:39 17:15:28 31° 91° (E) 17:19:16
GOMX 1 26 Jun 17:15:50 17:17:32 12° 60° (ENE) 17:19:11 467.674
STARS 26 Jun 17:17:19 17:21:42 63° 102° (ESE) 17:26:04 437.465
CUTE-I 26 Jun 17:19:46 17:24:08 26° 62° (ENE) 17:28:31 437.470
RS-15 26 Jun 17:27:46 17:38:06 31° 1° (N) 17:48:42 29.354- 29.394
CUBESAT XI-V 26 Jun 17:33:00 17:36:34 21° 92° (E) 17:40:05 437.345
Cosmos 2504 26 Jun 17:36:11 17:40:31 15° 309° (NW) 17:45:00 435.465 / 435.565
CUSAT 1 26 Jun 17:45:36 17:46:39 11° 55° (NE) 17:47:39 437.405
MOZHAYETS 4 26 Jun 17:48:32 17:52:51 38° 291° (WNW) 17:57:07
NOAA 15 26 Jun 17:54:42 17:59:58 67° 71° (ENE) 18:05:13 137.62
LilacSat-2 26 Jun 17:55:02 17:58:30 36° 70° (ENE) 18:02:02 437.200
NOAA 18 26 Jun 17:58:47 18:04:09 61° 70° (ENE) 18:09:35 137.9125
BRITE-PL 26 Jun 18:04:29 18:09:35 73° 75° (ENE) 18:14:17 437.365/2234.400
KKS-1 26 Jun 18:16:01 18:19:14 20° 297° (WNW) 18:22:28 437.445
Cubesat XI-IV 26 Jun 18:23:18 18:28:40 84° 73° (ENE) 18:34:04 437.490
DOVE 4 26 Jun 18:25:43 18:29:15 25° 67° (ENE) 18:32:42 437.250
SO-50 26 Jun 18:27:42 18:32:00 30° 319° (NW) 18:36:16 436.795
